User: anonymous   Login
Location: Oshawa
(43.9000°N, 78.8670°W)
Time: 03:24:43
(UTC-04:00)
Language:

Cosmos 1408 Rocket - Orbit

View from above orbital plane
View from above orbital plane
View from above satellite
View from above satellite

Ground track
Ground track

The orbit data is extracted from the following two-line orbital elements,

1 13553U 82092B   17145.42591847 +.00000078 +00000-0 +63227-5 0  9996
2 13553 082.5699 255.2791 0022837 118.2128 285.8544 14.84120993852578
Epoch (UTC): 25 May 2017 10:13:19
Eccentricity: 0.0022837
inclination: 82.5699°
perigee height: 600 km
apogee height: 632 km
right ascension of ascending node: 255.2791°
argument of perigee: 118.2128°
revolutions per day: 14.84120993
mean anomaly at epoch: 285.8544°
orbit number at epoch: 85257

The dashed part of the orbit path shows where the satellite is in the earth's shadow,  

DLR